LNR616 OOMS-OMDB

Flight info

Callsign LNR616
Flight time 0h 37m
Altitude 20000
Route MCT T508 SOLUD P574 IMPED
Aircraft B738/M-SDE2E3FGHIRWXY/LB1

Departure

Time 2026-05-06 00:34
Airport Muscat International Airport (OOMS)

Arrival

Time 2026-05-06 01:11
Airport Dubai International Airport (OMDB)
Time Latitude Longitude Altitude Speed Heading
2026-05-05 23:49 23.59843 58.30229 44 ft 0 kts 354°
2026-05-06 00:21 23.59839 58.30229 44 ft 2 kts 353°
2026-05-06 00:21 23.59822 58.30232 44 ft 2 kts 352°
2026-05-06 00:21 23.59806 58.30234 42 ft 2 kts 349°
2026-05-06 00:21 23.59790 58.30238 43 ft 2 kts 345°
2026-05-06 00:22 23.59774 58.30243 42 ft 2 kts 338°
2026-05-06 00:22 23.59760 58.30252 44 ft 2 kts 316°
2026-05-06 00:22 23.59752 58.30267 44 ft 2 kts 274°
2026-05-06 00:22 23.59752 58.30275 44 ft 0 kts 266°
2026-05-06 00:24 23.59750 58.30258 44 ft 5 kts 265°
2026-05-06 00:24 23.59745 58.30195 44 ft 11 kts 265°
2026-05-06 00:24 23.59737 58.30090 44 ft 16 kts 265°
2026-05-06 00:24 23.59726 58.29948 44 ft 21 kts 265°
2026-05-06 00:25 23.59712 58.29776 44 ft 24 kts 265°
2026-05-06 00:25 23.59698 58.29602 44 ft 23 kts 265°
2026-05-06 00:25 23.59685 58.29433 44 ft 22 kts 264°
2026-05-06 00:25 23.59672 58.29270 44 ft 21 kts 265°
2026-05-06 00:26 23.59659 58.29110 44 ft 22 kts 265°
2026-05-06 00:26 23.59646 58.28932 43 ft 24 kts 264°
2026-05-06 00:26 23.59631 58.28756 43 ft 23 kts 265°
2026-05-06 00:26 23.59616 58.28577 43 ft 25 kts 264°
2026-05-06 00:27 23.59601 58.28379 44 ft 27 kts 264°
2026-05-06 00:27 23.59583 58.28164 44 ft 29 kts 265°
2026-05-06 00:27 23.59565 58.27942 44 ft 29 kts 265°
2026-05-06 00:27 23.59547 58.27726 44 ft 28 kts 265°
2026-05-06 00:28 23.59531 58.27523 44 ft 26 kts 265°
2026-05-06 00:28 23.59574 58.27373 44 ft 22 kts 351°
2026-05-06 00:28 23.59726 58.27360 44 ft 24 kts 354°
2026-05-06 00:28 23.59910 58.27342 44 ft 28 kts 354°
2026-05-06 00:29 23.60101 58.27325 44 ft 27 kts 355°
2026-05-06 00:29 23.60281 58.27308 44 ft 25 kts 355°
2026-05-06 00:29 23.60436 58.27310 44 ft 20 kts 38°
2026-05-06 00:29 23.60463 58.27461 44 ft 22 kts 85°
2026-05-06 00:30 23.60477 58.27639 44 ft 25 kts 84°
2026-05-06 00:30 23.60494 58.27843 43 ft 29 kts 84°
2026-05-06 00:30 23.60512 58.28057 44 ft 27 kts 84°
2026-05-06 00:30 23.60528 58.28258 44 ft 26 kts 85°
2026-05-06 00:31 23.60544 58.28448 44 ft 26 kts 85°
2026-05-06 00:31 23.60560 58.28652 44 ft 28 kts 85°
2026-05-06 00:31 23.60577 58.28862 43 ft 28 kts 85°
2026-05-06 00:31 23.60597 58.29006 43 ft 15 kts 60°
2026-05-06 00:32 23.60693 58.29025 44 ft 14 kts 354°
2026-05-06 00:32 23.60790 58.29017 44 ft 13 kts 12°
2026-05-06 00:32 23.60848 58.29035 44 ft 7 kts 317°
2026-05-06 00:32 23.60851 58.29013 44 ft 0 kts 265°
2026-05-06 00:34 23.60848 58.28971 43 ft 30 kts 265°
2026-05-06 00:34 23.60803 58.28412 42 ft 115 kts 264°
2026-05-06 00:34 23.60712 58.27282 125 ft 176 kts 266°
2026-05-06 00:34 23.60625 58.25938 1034 ft 178 kts 265°
2026-05-06 00:35 23.60546 58.24572 1959 ft 185 kts 264°
2026-05-06 00:35 23.60540 58.23155 2777 ft 191 kts 278°
2026-05-06 00:35 23.60956 58.21759 3487 ft 201 kts 286°
2026-05-06 00:35 23.61437 58.20211 3703 ft 229 kts 286°
2026-05-06 00:36 23.61961 58.18470 3905 ft 254 kts 285°
2026-05-06 00:36 23.62526 58.16559 4290 ft 271 kts 286°
2026-05-06 00:36 23.63105 58.14576 5037 ft 276 kts 286°
2026-05-06 00:36 23.63686 58.12566 5829 ft 279 kts 287°
2026-05-06 00:37 23.64268 58.10531 6573 ft 284 kts 287°
2026-05-06 00:37 23.64875 58.08395 6888 ft 308 kts 287°
2026-05-06 00:37 23.65533 58.06070 7066 ft 333 kts 287°
2026-05-06 00:37 23.66228 58.03603 7244 ft 355 kts 287°
2026-05-06 00:38 23.66970 58.00966 7601 ft 369 kts 287°
2026-05-06 00:38 23.67730 57.98259 8131 ft 377 kts 288°
2026-05-06 00:38 23.68498 57.95525 8861 ft 378 kts 288°
2026-05-06 00:38 23.69299 57.92785 9553 ft 380 kts 292°
2026-05-06 00:39 23.70663 57.90310 10136 ft 382 kts 309°
2026-05-06 00:39 23.72348 57.88055 10757 ft 384 kts 310°
2026-05-06 00:39 23.74044 57.85783 11349 ft 388 kts 310°
2026-05-06 00:39 23.75743 57.83486 11947 ft 391 kts 309°
2026-05-06 00:40 23.77448 57.81158 12547 ft 394 kts 309°
2026-05-06 00:40 23.79157 57.78808 13095 ft 398 kts 309°
2026-05-06 00:40 23.80882 57.76426 13649 ft 401 kts 309°
2026-05-06 00:40 23.82597 57.74051 14268 ft 398 kts 309°
2026-05-06 00:41 23.84283 57.71711 15309 ft 385 kts 309°
2026-05-06 00:41 23.85915 57.69446 16373 ft 374 kts 309°
2026-05-06 00:41 23.87499 57.67247 17495 ft 361 kts 308°
2026-05-06 00:41 23.89029 57.65122 18553 ft 349 kts 308°
2026-05-06 00:42 23.90528 57.63040 19093 ft 355 kts 308°
2026-05-06 00:42 23.92059 57.60913 19350 ft 366 kts 308°
2026-05-06 00:42 23.93651 57.58700 19626 ft 377 kts 308°
2026-05-06 00:42 23.95290 57.56420 19809 ft 388 kts 308°
2026-05-06 00:43 23.96987 57.54059 19808 ft 401 kts 308°
2026-05-06 00:43 23.98736 57.51625 19816 ft 412 kts 308°
2026-05-06 00:43 24.00531 57.49125 19816 ft 422 kts 308°
2026-05-06 00:43 24.01740 57.47438 19818 ft 428 kts 308°
2026-05-06 00:44 24.03592 57.44854 19811 ft 432 kts 308°
2026-05-06 00:44 24.05438 57.42273 19792 ft 429 kts 308°
2026-05-06 00:44 24.07268 57.39714 19804 ft 426 kts 308°
2026-05-06 00:44 24.09090 57.37164 19798 ft 425 kts 308°
2026-05-06 00:45 24.10910 57.34615 19808 ft 425 kts 308°
2026-05-06 00:45 24.12731 57.32064 19812 ft 426 kts 308°
2026-05-06 00:45 24.14559 57.29503 19813 ft 427 kts 308°
2026-05-06 00:45 24.16391 57.26935 19815 ft 429 kts 308°
2026-05-06 00:46 24.18231 57.24353 19807 ft 430 kts 308°
2026-05-06 00:46 24.20074 57.21768 19806 ft 431 kts 308°
2026-05-06 00:46 24.21924 57.19170 19805 ft 431 kts 308°
2026-05-06 00:46 24.23770 57.16575 19804 ft 431 kts 308°
2026-05-06 00:47 24.25616 57.13980 19808 ft 431 kts 308°
2026-05-06 00:47 24.27432 57.11427 19809 ft 431 kts 308°
2026-05-06 00:47 24.29270 57.08839 19809 ft 430 kts 308°
2026-05-06 00:47 24.31110 57.06250 19811 ft 430 kts 308°
2026-05-06 00:48 24.32949 57.03659 19813 ft 430 kts 308°
2026-05-06 00:48 24.34784 57.01072 19811 ft 430 kts 308°
2026-05-06 00:48 24.36617 56.98488 19805 ft 430 kts 308°
2026-05-06 00:48 24.38453 56.95896 19804 ft 429 kts 308°
2026-05-06 00:49 24.40287 56.93308 19800 ft 429 kts 308°
2026-05-06 00:49 24.42119 56.90719 19799 ft 429 kts 308°
2026-05-06 00:49 24.43949 56.88134 19795 ft 430 kts 308°
2026-05-06 00:49 24.45782 56.85541 19793 ft 430 kts 308°
2026-05-06 00:50 24.47615 56.82947 19795 ft 430 kts 308°
2026-05-06 00:50 24.49447 56.80353 19790 ft 430 kts 308°
2026-05-06 00:50 24.51278 56.77761 19790 ft 430 kts 308°
2026-05-06 00:50 24.53120 56.75151 19788 ft 430 kts 308°
2026-05-06 00:51 24.54954 56.72552 19791 ft 430 kts 308°
2026-05-06 00:51 24.56786 56.69956 19791 ft 430 kts 308°
2026-05-06 00:51 24.58601 56.67384 19793 ft 430 kts 308°
2026-05-06 00:51 24.60438 56.64780 19796 ft 431 kts 308°
2026-05-06 00:52 24.62271 56.62179 19828 ft 431 kts 308°
2026-05-06 00:52 24.64103 56.59578 19825 ft 430 kts 308°
2026-05-06 00:52 24.65935 56.56976 19827 ft 430 kts 308°
2026-05-06 00:52 24.67770 56.54368 19826 ft 431 kts 308°
2026-05-06 00:53 24.69605 56.51759 19838 ft 431 kts 308°
2026-05-06 00:53 24.71439 56.49156 19838 ft 430 kts 308°
2026-05-06 00:53 24.73266 56.46563 19762 ft 423 kts 308°
2026-05-06 00:53 24.75051 56.44028 19254 ft 419 kts 308°
2026-05-06 00:54 24.76840 56.41486 18564 ft 419 kts 308°
2026-05-06 00:54 24.78606 56.38975 17782 ft 421 kts 308°
2026-05-06 00:54 24.80388 56.36423 17100 ft 418 kts 307°
2026-05-06 00:54 24.82111 56.33876 16539 ft 413 kts 307°
2026-05-06 00:55 24.83806 56.31342 15970 ft 408 kts 307°
2026-05-06 00:55 24.85484 56.28840 15428 ft 404 kts 307°
2026-05-06 00:55 24.87149 56.26368 14912 ft 399 kts 307°
2026-05-06 00:55 24.88715 56.23863 14306 ft 397 kts 301°
2026-05-06 00:56 24.90085 56.21225 13757 ft 394 kts 298°
2026-05-06 00:56 24.91382 56.18573 13147 ft 392 kts 298°
2026-05-06 00:56 24.92668 56.15946 12628 ft 386 kts 298°
2026-05-06 00:56 24.93955 56.13368 12124 ft 381 kts 298°
2026-05-06 00:57 24.95235 56.10847 11904 ft 370 kts 298°
2026-05-06 00:57 24.96476 56.08415 11708 ft 359 kts 298°
2026-05-06 00:57 24.97635 56.06016 11506 ft 348 kts 292°
2026-05-06 00:57 24.98466 56.03591 11329 ft 338 kts 287°
2026-05-06 00:58 24.99167 56.01156 11144 ft 329 kts 286°
2026-05-06 00:58 24.99827 55.98772 10959 ft 321 kts 286°
2026-05-06 00:58 25.00476 55.96458 10754 ft 310 kts 286°
2026-05-06 00:58 25.01112 55.94239 10573 ft 296 kts 286°
2026-05-06 00:59 25.01730 55.92116 10329 ft 286 kts 286°
2026-05-06 00:59 25.02335 55.90059 10086 ft 277 kts 286°
2026-05-06 00:59 25.03008 55.88128 9958 ft 265 kts 300°
2026-05-06 00:59 25.04277 55.86684 9635 ft 264 kts 328°
2026-05-06 01:00 25.06013 55.86098 9326 ft 262 kts 358°
2026-05-06 01:00 25.07762 55.86506 9011 ft 257 kts 28°
2026-05-06 01:00 25.09079 55.87781 8717 ft 252 kts 59°
2026-05-06 01:00 25.09633 55.89579 8433 ft 248 kts 90°
2026-05-06 01:01 25.09300 55.91387 8153 ft 244 kts 121°
2026-05-06 01:01 25.08183 55.92732 7910 ft 237 kts 152°
2026-05-06 01:01 25.06627 55.93213 7667 ft 232 kts 184°
2026-05-06 01:01 25.05108 55.92704 7433 ft 230 kts 216°
2026-05-06 01:02 25.04083 55.91372 7206 ft 232 kts 247°
2026-05-06 01:02 25.03864 55.89609 6985 ft 238 kts 277°
2026-05-06 01:02 25.04233 55.87827 6772 ft 241 kts 283°
2026-05-06 01:02 25.04678 55.86028 6559 ft 244 kts 284°
2026-05-06 01:03 25.05123 55.84257 6324 ft 241 kts 284°
2026-05-06 01:03 25.05568 55.82486 6077 ft 237 kts 284°
2026-05-06 01:03 25.06002 55.80744 5827 ft 235 kts 284°
2026-05-06 01:03 25.06438 55.78981 5584 ft 236 kts 284°
2026-05-06 01:04 25.06863 55.77257 5346 ft 237 kts 284°
2026-05-06 01:04 25.07295 55.75496 5109 ft 238 kts 285°
2026-05-06 01:04 25.07728 55.73729 4864 ft 240 kts 285°
2026-05-06 01:04 25.08164 55.71943 4576 ft 242 kts 285°
2026-05-06 01:05 25.08599 55.70163 4242 ft 239 kts 285°
2026-05-06 01:05 25.09075 55.68211 3890 ft 236 kts 285°
2026-05-06 01:05 25.09499 55.66472 3577 ft 234 kts 285°
2026-05-06 01:05 25.09921 55.64744 3269 ft 231 kts 286°
2026-05-06 01:06 25.10554 55.63123 3072 ft 232 kts 301°
2026-05-06 01:06 25.11384 55.61616 3072 ft 224 kts 302°
2026-05-06 01:06 25.12189 55.60188 3011 ft 214 kts 302°
2026-05-06 01:06 25.12959 55.58804 3007 ft 210 kts 302°
2026-05-06 01:07 25.13720 55.57427 3004 ft 210 kts 302°
2026-05-06 01:07 25.14480 55.56047 3004 ft 210 kts 302°
2026-05-06 01:07 25.15233 55.54677 2944 ft 207 kts 302°
2026-05-06 01:07 25.15967 55.53343 2718 ft 199 kts 302°
2026-05-06 01:08 25.16669 55.52069 2481 ft 189 kts 303°
2026-05-06 01:08 25.17331 55.50865 2242 ft 179 kts 303°
2026-05-06 01:08 25.17961 55.49723 2025 ft 174 kts 303°
2026-05-06 01:08 25.18590 55.48581 1816 ft 174 kts 303°
2026-05-06 01:09 25.19231 55.47419 1598 ft 176 kts 303°
2026-05-06 01:09 25.19851 55.46292 1387 ft 174 kts 302°
2026-05-06 01:09 25.20467 55.45179 1184 ft 165 kts 302°
2026-05-06 01:09 25.21056 55.44094 956 ft 164 kts 302°
2026-05-06 01:10 25.21642 55.43018 735 ft 163 kts 302°
2026-05-06 01:10 25.22227 55.41956 536 ft 161 kts 302°
2026-05-06 01:10 25.22801 55.40897 354 ft 160 kts 301°
2026-05-06 01:10 25.23387 55.39849 139 ft 160 kts 302°
2026-05-06 01:11 25.23963 55.38814 25 ft 146 kts 301°
2026-05-06 01:11 25.24377 55.38071 24 ft 81 kts 301°
2026-05-06 01:11 25.24620 55.37631 21 ft 62 kts 302°
2026-05-06 01:11 25.24768 55.37301 23 ft 33 kts 282°
2026-05-06 01:12 25.24784 55.37095 22 ft 22 kts 271°
2026-05-06 01:12 25.24812 55.36933 22 ft 21 kts 297°
2026-05-06 01:12 25.24848 55.36852 21 ft 11 kts 284°
2026-05-06 01:12 25.24870 55.36739 21 ft 16 kts 282°
2026-05-06 01:13 25.24916 55.36624 20 ft 17 kts 302°
2026-05-06 01:13 25.24983 55.36502 20 ft 20 kts 302°
2026-05-06 01:13 25.25066 55.36356 20 ft 24 kts 302°
2026-05-06 01:13 25.25160 55.36188 22 ft 25 kts 302°
2026-05-06 01:14 25.25310 55.35930 20 ft 23 kts 300°
2026-05-06 01:14 25.25390 55.35781 21 ft 22 kts 302°
2026-05-06 01:14 25.25471 55.35638 20 ft 22 kts 302°
2026-05-06 01:15 25.25549 55.35498 22 ft 21 kts 302°
2026-05-06 01:15 25.25625 55.35363 21 ft 20 kts 302°
2026-05-06 01:15 25.25698 55.35232 20 ft 20 kts 302°
2026-05-06 01:15 25.25770 55.35104 20 ft 17 kts 298°
2026-05-06 01:16 25.25857 55.35067 20 ft 16 kts 27°
2026-05-06 01:16 25.25956 55.35133 21 ft 18 kts 31°
2026-05-06 01:16 25.26075 55.35213 21 ft 23 kts 31°
2026-05-06 01:16 25.26211 55.35304 23 ft 23 kts 31°
2026-05-06 01:17 25.26343 55.35393 24 ft 22 kts 31°
2026-05-06 01:17 25.26457 55.35468 21 ft 13 kts 31°
2026-05-06 01:17 25.26502 55.35543 21 ft 13 kts 101°
2026-05-06 01:17 25.26455 55.35626 21 ft 13 kts 123°
2026-05-06 01:18 25.26405 55.35716 20 ft 14 kts 121°
2026-05-06 01:18 25.26352 55.35808 20 ft 14 kts 122°
2026-05-06 01:18 25.26307 55.35888 21 ft 8 kts 121°
2026-05-06 01:18 25.26308 55.35930 20 ft 6 kts 36°
2026-05-06 01:19 25.26345 55.35953 20 ft 5 kts 31°
2026-05-06 01:19 25.26368 55.35968 20 ft 2 kts 30°
2026-05-06 01:19 25.26369 55.35969 20 ft 0 kts 30°